Regional Weather Roundup
Issued by NWS

Home | Current Version | Previous Version | Text Only | Print | Product List | Glossary Off
Versions: 1 2 3 4 5 6 7 8 9 10 11 12 13 14 15 16 17 18 19 20 21 22 23 24 25 26 27 28 29 30 31 32 33 34 35 36 37 38 39 40 41 42 43 44 45 46 47 48 49 50

582
ASUS45 KABQ 240901
RWRNM
NEW MEXICO REGIONAL WEATHER ROUNDUP
NATIONAL WEATHER SERVICE ALBUQUERQUE NM
300 AM MDT SAT JUN 24 2017

NOTE: "FAIR" MEANS FEW OR NO CLOUDS BELOW 12,000 FEET AGL WITH NO
       SIGNIFICANT WEATHER OR OBSTRUCTIONS TO VISION.

      THIS PRODUCT IS RELEASED AS TWO VERSIONS.  ONE VERSION NEAR
      THE TOP OF THE HOUR CONTAINING PRELIMINARY DATA FROM ALBUQUERQUE
      AND OTHER STATIONS.  A FINAL VERSION WITH ADDITIONAL DATA IS
      ISSUED ABOUT 10 MINUTES AFTER THE HOUR.

NMZ501-503-504-510>518-241000-
NORTHWEST PLATEAU/NORTHCENTRAL MOUNTAINS

CITY           SKY/WX    TMP DP  RH WIND       PRES   REMARKS
FARMINGTON     FAIR      62  28  27 E9        30.14R
LOS ALAMOS     CLOUDY    63  50  62 SW10      30.36F
SANTA FE       FAIR      65  52  62 SE14      30.29S
TAOS           FAIR      61  43  51 SE15G21   30.35S
ANGEL FIRE     FAIR      48  45  87 W5        30.45F

$$
NMZ402-403-502-505>509-241000-
WESTCENTRAL MOUNTAINS/SOUTHWEST MOUNTAINS

CITY           SKY/WX    TMP DP  RH WIND       PRES   REMARKS
GALLUP         FAIR      62  27  26 CALM      30.21S
GRANTS         FAIR      67  51  56 SE16      30.27S
SILVER CITY    FAIR      74  55  49 E9        30.14R

$$
NMZ407-409-411-412-241000-
SOUTHERN DESERTS

CITY           SKY/WX    TMP DP  RH WIND       PRES   REMARKS
DEMING         FAIR      80  58  46 NE13      30.05R
LAS CRUCES     FAIR      81  51  34 E10G17    30.07S
HOLLOMAN AFB   FAIR      83  56  38 E7        30.07S
ALAMOGORDO     FAIR      82  54  36 W3        30.07R
T OR C         FAIR      77  56  48 N10       30.12R

$$
NMZ519>523-241000-
CENTRAL VALLEYS/CENTRAL HIGHLANDS

CITY           SKY/WX    TMP DP  RH WIND       PRES   REMARKS
ALBUQUERQUE    FAIR      70  52  52 E21G32    30.19S
DOUBLE EAGLE   FAIR      68  52  57 SE14G21   30.25R
MORIARTY ARPT  CLOUDY    65  51  59 E9        30.33F
CLINES CORNERS CLOUDY    58  47  66 E18G26    30.37S
BELEN          NOT AVBL
SOCORRO        FAIR      75  57  53 CALM      30.17S

$$
NMZ524>526-539-540-241000-
SOUTHCENTRAL MOUNTAINS

CITY           SKY/WX    TMP DP  RH WIND       PRES   REMARKS
RUIDOSO        CLOUDY    64  59  82 E16       30.37S

$$
NMZ527>531-241000-
NORTHEAST HIGHLANDS/NORTHEAST PLAINS

CITY           SKY/WX    TMP DP  RH WIND       PRES   REMARKS
LAS VEGAS      CLOUDY    58  47  66 E8        30.39F
RATON          CLOUDY    55  47  74 SW7       30.36S
CLAYTON        CLOUDY    59  47  64 NE5       30.30F

$$
NMZ532>537-241000-
EASTCENTRAL PLAINS

CITY           SKY/WX    TMP DP  RH WIND       PRES   REMARKS
SANTA ROSA     CLOUDY    65  48  55 E12       30.26F
TUCUMCARI      CLOUDY    67  49  52 E10       30.24S
CANNON AFB     MOCLDY    63  50  61 NE16      30.23S
CLOVIS AIRPORT MOCLDY    63  50  62 NE13      30.23S

$$
NMZ028-029-538-241000-
SOUTHEAST PLAINS

CITY           SKY/WX    TMP DP  RH WIND       PRES   REMARKS
ROSWELL        FAIR      75  54  47 E9        30.13R
ARTESIA        FAIR      73  54  49 NE6       30.12S
CARLSBAD       FAIR      74  55  51 N5        30.07R
HOBBS          FAIR      68  55  64 NE12      30.13S


$$




USA.gov is the U.S. government's official web portal to all federal, state and local government web resources and services.